Flag for Norway Weather past 2 weeks in Florø, Norway

Now
43 °F

Scattered showers. Passing clouds.


Feels Like: 34 °F
Forecast: 40 / 43 °F
Wind: 18 mph from Southwest

Location: Floro

Current Time: Feb 27, 2015 at 11:19:38 PM

Latest Report: Feb 27, 2015 at 10:20 PM


Visibility: N/A

Pressure: 29.62 "Hg

Humidity: 87%

Dew point: 39 °F

Location of FlorøLocation

Historic Weather in Florø — Graph

°F

Florø temperature yesterday

Maximum temperature yesterday: 43 °F (at 12:20 AM)
Minimum temperature yesterday: 37 °F (at 5:20 AM)
Average temperature yesterday: 39 °F

Past Weeks' High & Low Weather Summary

 TemperatureHumidityPressure
High46 °F (Feb 15, 10:50 AM)100% (Feb 18, 4:50 AM)30.15 "Hg (Feb 18, 4:50 AM)
Low32 °F (Feb 22, 4:50 AM)42% (Feb 24, 2:20 PM)28.53 "Hg (Feb 23, 9:20 AM)
Average40 °F79%29.54 "Hg
* Reported Feb 12 9:20 PM — Feb 27 9:50 PM, Florø, Weather by CustomWeather, © 2015

Note: Actual official high and low records may vary slightly from our data, if they occured in-between our weather recording intervals... More about our weather records

Advertising

Florø weather history for previous 24 hours

 ConditionsComfort  
Time TempWeatherWind HumidityBarometerVisibility
9:50 PM
Fri, Feb 27
43 °FScattered showers. Passing clouds.28 mph81%29.62 "HgN/A
9:20 PM39 °FSprinkles. Passing clouds.24 mph87%29.62 "HgN/A
8:50 PM43 °FScattered showers. Passing clouds.23 mph81%29.62 "HgN/A
8:20 PM43 °FSprinkles. Passing clouds.23 mph81%29.62 "HgN/A
7:50 PM43 °FScattered showers. Passing clouds.22 mph87%29.62 "HgN/A
7:20 PM43 °FSprinkles. Passing clouds.24 mph81%29.62 "HgN/A
6:50 PM39 °FScattered showers. Passing clouds.22 mph93%29.62 "HgN/A
6:20 PM43 °FScattered showers. Partly cloudy.24 mph87%29.59 "HgN/A
5:50 PM43 °FScattered showers. Broken clouds.22 mph81%29.59 "HgN/A
5:20 PM41 °FSprinkles. Broken clouds.28 mph87%29.59 "HgN/A
4:50 PM41 °FSprinkles. Broken clouds.26 mph81%29.56 "HgN/A
4:20 PM43 °FScattered showers. Broken clouds.25 mph81%29.56 "HgN/A
3:50 PM39 °FLight rain. Broken clouds.24 mph87%29.56 "HgN/A
3:20 PM43 °FScattered showers. Broken clouds.31 mph81%29.56 "HgN/A
2:50 PM41 °FScattered showers. Broken clouds.30 mph87%29.53 "HgN/A
2:20 PM41 °FLight rain. Broken clouds.32 mph87%29.56 "HgN/A
1:50 PM39 °FLight rain. Broken clouds.35 mph87%29.53 "HgN/A
1:20 PM39 °FSprinkles. Broken clouds.36 mph87%29.53 "HgN/A
12:50 PM39 °FDrizzle. Broken clouds.38 mph87%29.53 "HgN/A
12:20 PM41 °FScattered showers. Scattered clouds.36 mph81%29.53 "HgN/A
11:50 AM39 °FRain showers. Broken clouds.37 mph81%29.53 "HgN/A
11:20 AM41 °FSprinkles. Broken clouds.35 mph81%29.53 "Hg5 mi
10:50 AM41 °FSprinkles. Scattered clouds.35 mph76%29.53 "HgN/A
10:20 AM43 °FScattered showers. Scattered clouds.35 mph71%29.53 "HgN/A
9:50 AM41 °FScattered showers. Scattered clouds.33 mph70%29.53 "HgN/A
9:20 AM41 °FScattered showers. Scattered clouds.31 mph70%29.53 "HgN/A
8:50 AM41 °FScattered showers. Partly sunny.33 mph70%29.53 "HgN/A
8:20 AM41 °FScattered showers. Scattered clouds.28 mph76%29.53 "HgN/A
7:50 AM41 °FScattered showers. Passing clouds.29 mph76%29.53 "HgN/A
7:20 AM41 °FScattered showers. Passing clouds.25 mph81%29.53 "HgN/A
6:50 AM41 °FScattered showers. Passing clouds.31 mph76%29.53 "HgN/A
6:20 AM41 °FScattered showers. Passing clouds.30 mph76%29.50 "HgN/A
5:50 AM41 °FScattered showers. Passing clouds.29 mph76%29.50 "HgN/A
5:20 AM41 °FRain. Passing clouds.26 mph76%29.53 "HgN/A
4:20 AM41 °FRain. Passing clouds.24 mph81%29.50 "HgN/A
3:50 AM41 °FRain. Passing clouds.25 mph81%29.53 "HgN/A
3:20 AM41 °FRain. Partly cloudy.23 mph81%29.50 "HgN/A
2:50 AM39 °FRain. Passing clouds.22 mph93%29.53 "HgN/A
2:20 AM37 °FRain. Passing clouds.23 mph87%29.50 "HgN/A
1:50 AM39 °FRain. Mostly cloudy.20 mph87%29.50 "HgN/A
1:20 AM39 °FRain. Partly cloudy.22 mph87%29.50 "HgN/A
12:50 AM41 °FRain. Passing clouds.22 mph81%29.50 "HgN/A
12:20 AM41 °FRain. Passing clouds.24 mph81%29.50 "HgN/A
11:50 PM
Thu, Feb 26
41 °FRain. Partly cloudy.21 mph81%29.50 "HgN/A
11:20 PM39 °FRain. Passing clouds.21 mph87%29.47 "HgN/A
Weather by CustomWeather, © 2015

See weather overviewHow to use our weather pages